Weather History for Kearney, NE

Change the Weather History Date:

Wednesday, November 14, 2012

  Actual Average Record
Temperature  
Mean Temperature 41 °F 38 °F  
Max Temperature 61 °F 50 °F 73 °F (1939)
Min Temperature 21 °F 26 °F -5 °F (1940)
Degree Days  
Heating Degree Days 24 27  
Month to date heating degree days 336  
Since 1 July heating degree days 930  
Cooling Degree Days 0 0  
Month to date cooling degree days 0  
Year to date cooling degree days 871  
Moisture  
Dew Point 19 °F    
Average Humidity 48    
Maximum Humidity 71    
Minimum Humidity 24    
Precipitation  
Precipitation 0.00 in - 0.65 in (1909)
Sea Level Pressure  
Sea Level Pressure 30.21 in    
Wind  
Wind Speed 8 mph (SW)    
Max Wind Speed 15 mph    
Max Gust Speed 17 mph    
Visibility 10 miles    
Events      
T = Trace of Precipitation, MM = Missing Value Source: NWS Daily Summary

Daily Weather History Graph

Daily Weather History Graph

Search for Another Location

Airport:

Trip Planner

Search our weather history database for the weather conditions in past years. The results will help you decide how hot, cold, wet, or windy it might be!

Date:

Astronomy

Nov. 14, 2012 Rise Set
Actual Time 7:22 AM CST 5:18 PM CST
Civil Twilight 6:52 AM CST 5:47 PM CST
Nautical Twilight 6:19 AM CST 6:20 PM CST
Astronomical Twilight 5:47 AM CST 6:53 PM CST
Moon 8:13 AM CST (11/14) 6:08 PM CST (11/14)
Length of Visible Light 10h 54m
Length of Day
9h 56m
New Moon, 1% of the Moon is Illuminated
Nov 14
New Moon
Nov 20
First Quarter
Nov 28
Full
Dec 6
Last Quarter
Dec 13
New

Hourly Weather History & Observations

Time (CST) Temp. Windchill Dew Point Humidity Pressure Visibility Wind Dir Wind Speed Gust Speed Precip Events Conditions
12:15 AM 32.0 °F 27.5 °F 17.6 °F 55% 30.26 in 10.0 mi WSW 4.6 mph - N/A   Clear
12:35 AM 30.2 °F 25.4 °F 17.6 °F 60% 30.26 in 10.0 mi SW 4.6 mph - N/A   Clear
12:55 AM 28.4 °F 22.2 °F 17.6 °F 64% 30.26 in 10.0 mi SW 5.8 mph - N/A   Clear
1:15 AM 28.4 °F 21.2 °F 17.6 °F 64% 30.26 in 10.0 mi SSW 6.9 mph - N/A   Clear
1:35 AM 28.4 °F 20.4 °F 17.6 °F 64% 30.26 in 10.0 mi SW 8.1 mph - N/A   Clear
1:55 AM 26.6 °F 17.5 °F 17.6 °F 69% 30.26 in 10.0 mi SW 9.2 mph - N/A   Clear
2:15 AM 32.0 °F 25.6 °F 17.6 °F 55% 30.26 in 10.0 mi SW 6.9 mph - N/A   Clear
2:35 AM 30.2 °F 23.4 °F 17.6 °F 60% 30.26 in 10.0 mi West 6.9 mph - N/A   Clear
2:55 AM 26.6 °F 19.1 °F 12.2 °F 55% 30.26 in 10.0 mi West 6.9 mph - N/A   Clear
3:15 AM 26.6 °F 20.0 °F 14.0 °F 59% 30.26 in 10.0 mi WNW 5.8 mph - N/A   Clear
3:35 AM 24.8 °F 17.9 °F 12.2 °F 59% 30.26 in 10.0 mi WNW 5.8 mph - N/A   Clear
3:55 AM 24.8 °F 15.3 °F 12.2 °F 59% 30.26 in 10.0 mi WNW 9.2 mph - N/A   Clear
4:15 AM 24.8 °F 15.3 °F 12.2 °F 59% 30.26 in 10.0 mi WNW 9.2 mph - N/A   Clear
4:35 AM 23.0 °F 13.9 °F 12.2 °F 63% 30.25 in 10.0 mi WNW 8.1 mph - N/A   Clear
4:55 AM 23.0 °F 13.1 °F 12.2 °F 63% 30.25 in 10.0 mi WNW 9.2 mph - N/A   Clear
5:15 AM 24.8 °F 15.3 °F 12.2 °F 59% 30.25 in 10.0 mi WNW 9.2 mph - N/A   Clear
5:35 AM 23.0 °F 13.9 °F 10.4 °F 59% 30.25 in 10.0 mi WNW 8.1 mph - N/A   Clear
5:55 AM 21.2 °F 10.1 °F 12.2 °F 68% 30.25 in 10.0 mi WNW 10.4 mph - N/A   Clear
6:15 AM 21.2 °F 10.9 °F 12.2 °F 68% 30.26 in 10.0 mi WNW 9.2 mph - N/A   Clear
6:35 AM 21.2 °F 10.9 °F 12.2 °F 68% 30.26 in 10.0 mi WNW 9.2 mph - N/A   Clear
6:55 AM 21.2 °F 12.6 °F 14.0 °F 74% 30.27 in 10.0 mi WNW 6.9 mph - N/A   Clear
7:15 AM 21.2 °F 13.6 °F 12.2 °F 68% 30.26 in 10.0 mi WNW 5.8 mph - N/A   Clear
7:35 AM 21.2 °F 11.7 °F 12.2 °F 68% 30.27 in 10.0 mi West 8.1 mph - N/A   Clear
7:55 AM 21.2 °F 16.4 °F 14.0 °F 74% 30.27 in 10.0 mi West 3.5 mph - N/A   Clear
8:15 AM 24.8 °F 16.9 °F 15.8 °F 69% 30.27 in 10.0 mi West 6.9 mph - N/A   Clear
8:35 AM 28.4 °F 22.2 °F 19.4 °F 69% 30.28 in 10.0 mi West 5.8 mph - N/A   Clear
8:55 AM 32.0 °F 28.7 °F 21.2 °F 64% 30.28 in 10.0 mi West 3.5 mph - N/A   Clear
9:15 AM 35.6 °F 32.8 °F 21.2 °F 56% 30.29 in 10.0 mi WNW 3.5 mph - N/A   Clear
9:35 AM 37.4 °F 34.9 °F 21.2 °F 52% 30.29 in 10.0 mi West 3.5 mph - N/A   Clear
9:55 AM 39.2 °F - 21.2 °F 49% 30.29 in 10.0 mi Calm Calm - N/A   Clear
10:15 AM 42.8 °F - 21.2 °F 42% 30.28 in 10.0 mi Calm Calm - N/A   Clear
10:35 AM 42.8 °F - 21.2 °F 42% 30.27 in 10.0 mi Calm Calm - N/A   Clear
10:55 AM 46.4 °F - 21.2 °F 37% 30.27 in 10.0 mi Calm Calm - N/A   Clear
11:15 AM 48.2 °F - 21.2 °F 34% 30.27 in 10.0 mi SSW 3.5 mph - N/A   Clear
11:35 AM 50.0 °F - 21.2 °F 32% 30.26 in 10.0 mi SSW 3.5 mph - N/A   Clear
11:55 AM 51.8 °F - 21.2 °F 30% 30.25 in 10.0 mi SW 5.8 mph - N/A   Clear
12:15 PM 53.6 °F - 23.0 °F 30% 30.23 in 10.0 mi SSW 5.8 mph - N/A   Clear
12:35 PM 53.6 °F - 23.0 °F 30% 30.22 in 10.0 mi SSW 6.9 mph - N/A   Clear
12:55 PM 53.6 °F - 24.8 °F 33% 30.21 in 10.0 mi SSW 6.9 mph - N/A   Clear
1:15 PM 53.6 °F - 24.8 °F 33% 30.20 in 10.0 mi SW 9.2 mph - N/A   Clear
1:35 PM 55.4 °F - 24.8 °F 31% 30.19 in 10.0 mi SSW 8.1 mph - N/A   Clear
1:55 PM 55.4 °F - 24.8 °F 31% 30.18 in 10.0 mi South 9.2 mph - N/A   Clear
2:15 PM 55.4 °F - 24.8 °F 31% 30.17 in 10.0 mi SSW 9.2 mph - N/A   Clear
2:35 PM 57.2 °F - 24.8 °F 29% 30.16 in 10.0 mi South 12.7 mph - N/A   Clear
2:55 PM 57.2 °F - 23.0 °F 27% 30.15 in 10.0 mi SSW 10.4 mph 17.3 mph N/A   Clear
3:15 PM 59.0 °F - 23.0 °F 25% 30.15 in 10.0 mi SW 11.5 mph 17.3 mph N/A   Clear
3:35 PM 57.2 °F - 21.2 °F 25% 30.14 in 10.0 mi South 13.8 mph - N/A   Clear
3:55 PM 57.2 °F - 21.2 °F 25% 30.14 in 10.0 mi South 11.5 mph - N/A   Clear
4:15 PM 55.4 °F - 19.4 °F 25% 30.14 in 10.0 mi South 10.4 mph - N/A   Clear
4:35 PM 53.6 °F - 17.6 °F 24% 30.14 in 10.0 mi South 9.2 mph - N/A   Clear
4:55 PM 51.8 °F - 17.6 °F 26% 30.14 in 10.0 mi South 8.1 mph - N/A   Clear
5:15 PM 48.2 °F - 17.6 °F 30% 30.14 in 10.0 mi South 6.9 mph - N/A   Clear
5:35 PM 46.4 °F 42.9 °F 17.6 °F 32% 30.14 in 10.0 mi South 6.9 mph - N/A   Clear
5:55 PM 46.4 °F 41.9 °F 17.6 °F 32% 30.14 in 10.0 mi SSE 9.2 mph - N/A   Clear
6:15 PM 44.6 °F 39.7 °F 19.4 °F 37% 30.14 in 10.0 mi South 9.2 mph - N/A   Clear
6:35 PM 42.8 °F 37.0 °F 19.4 °F 39% 30.14 in 10.0 mi South 10.4 mph - N/A   Clear
6:55 PM 42.8 °F 37.5 °F 19.4 °F 39% 30.15 in 10.0 mi South 9.2 mph - N/A   Clear
7:15 PM 41.0 °F 34.7 °F 19.4 °F 42% 30.14 in 10.0 mi SSE 10.4 mph - N/A   Clear
7:35 PM 41.0 °F 35.2 °F 19.4 °F 42% 30.14 in 10.0 mi South 9.2 mph - N/A   Clear
7:55 PM 41.0 °F 34.7 °F 21.2 °F 45% 30.13 in 10.0 mi South 10.4 mph - N/A   Clear
8:15 PM 42.8 °F 37.0 °F 21.2 °F 42% 30.14 in 10.0 mi South 10.4 mph - N/A   Clear
8:35 PM 42.8 °F 36.2 °F 23.0 °F 46% 30.14 in 10.0 mi South 12.7 mph - N/A   Clear
8:55 PM 42.8 °F 35.4 °F 23.0 °F 46% 30.14 in 10.0 mi South 15.0 mph - N/A   Partly Cloudy
9:15 PM 44.6 °F 37.8 °F 24.8 °F 46% 30.14 in 10.0 mi South 15.0 mph - N/A   Clear
9:35 PM 44.6 °F 38.4 °F 24.8 °F 46% 30.15 in 10.0 mi South 12.7 mph - N/A   Scattered Clouds
9:55 PM 44.6 °F 38.4 °F 24.8 °F 46% 30.15 in 10.0 mi South 12.7 mph - N/A   Scattered Clouds
10:15 PM 44.6 °F 38.8 °F 24.8 °F 46% 30.15 in 10.0 mi South 11.5 mph - N/A   Partly Cloudy
10:35 PM 44.6 °F 38.1 °F 24.8 °F 46% 30.14 in 10.0 mi South 13.8 mph - N/A   Mostly Cloudy
10:55 PM 44.6 °F 38.8 °F 24.8 °F 46% 30.14 in 10.0 mi SSW 11.5 mph - N/A   Mostly Cloudy
11:15 PM 44.6 °F 38.4 °F 24.8 °F 46% 30.15 in 10.0 mi SSW 12.7 mph - N/A   Mostly Cloudy
11:35 PM 44.6 °F 38.4 °F 24.8 °F 46% 30.15 in 10.0 mi SSW 12.7 mph - N/A   Mostly Cloudy
11:55 PM 44.6 °F 39.2 °F 24.8 °F 46% 30.15 in 10.0 mi SSW 10.4 mph - N/A   Scattered Clouds